Weather History for KAQW - March, 2014

Change the Weather History Date:

Saturday, March 8, 2014

  Actual Average Record
Temperature  
Mean Temperature 31 °F -  
Max Temperature 45 °F 35 °F 64 °F (2012)
Min Temperature 17 °F 18 °F 3 °F (2007)
Degree Days  
Heating Degree Days 34    
Moisture  
Dew Point 21 °F    
Average Humidity 67    
Maximum Humidity 88    
Minimum Humidity 44    
Precipitation  
Precipitation 0.00 in - - ()
Sea Level Pressure  
Sea Level Pressure 29.86 in    
Wind  
Wind Speed 3 mph (WNW)    
Max Wind Speed 14 mph    
Max Gust Speed -    
Visibility 10 miles    
Events      
Averages and records for this station are not official NWS values.
T = Trace of Precipitation, MM = Missing Value Source: NWS Daily Summary

Daily Weather History Graph

Daily Weather History Graph

Search for Another Location

Airport or City:

Trip Planner

Search our weather history database for the weather conditions in past years. The results will help you decide how hot, cold, wet, or windy it might be!

Date:

Astronomy

Mar. 08, 2014 Rise Set
Actual Time 6:16 AM EST 5:50 PM EST
Civil Twilight 5:48 AM EST 6:18 PM EST
Nautical Twilight 5:15 AM EST 6:51 PM EST
Astronomical Twilight 4:43 AM EST 7:24 PM EST
Moon 10:47 AM EST (3/8) 12:54 AM EST (3/8)
Length of Visible Light 12h 30m
Length of Day
11h 34m
First Quarter, 51% of the Moon is Illuminated
Mar 8
First Quarter
Mar 16
Full
Mar 23
Last Quarter
Mar 30
New
Apr 7
First Quarter

Hourly Weather History & Observations

Time (EST) Temp. Windchill Dew Point Humidity Pressure Visibility Wind Dir Wind Speed Gust Speed Precip Events Conditions
12:29 AM 26.1 °F 20.5 °F 18.0 °F 71% 29.92 in 10.0 mi WSW 4.6 mph - N/A   Scattered Clouds
12:52 AM 25.0 °F - 17.1 °F 72% 29.94 in 10.0 mi Calm Calm - N/A   Scattered Clouds
1:00 AM 25.0 °F 20.7 °F 18.0 °F 75% 29.91 in 10.0 mi SW 3.5 mph - N/A   Mostly Cloudy
1:52 AM 26.1 °F - 18.0 °F 71% 29.92 in 10.0 mi Calm Calm - N/A   Overcast
2:43 AM 24.1 °F - 18.0 °F 77% 29.87 in 10.0 mi Calm Calm - N/A   Scattered Clouds
2:52 AM 21.9 °F - 17.1 °F 82% 29.89 in 10.0 mi Calm Calm - N/A   Partly Cloudy
3:52 AM 19.0 °F - 15.1 °F 85% 29.88 in 10.0 mi Calm Calm - N/A   Clear
4:52 AM 18.0 °F - 14.0 °F 84% 29.87 in 10.0 mi Calm Calm - N/A   Clear
5:52 AM 17.1 °F - 12.9 °F 84% 29.86 in 10.0 mi Calm Calm - N/A   Clear
6:52 AM 18.0 °F - 15.1 °F 88% 29.86 in 10.0 mi Calm Calm - N/A   Partly Cloudy
7:52 AM 21.9 °F - 18.0 °F 85% 29.87 in 10.0 mi Calm Calm - N/A   Mostly Cloudy
8:52 AM 27.0 °F - 21.0 °F 78% 29.86 in 10.0 mi Calm Calm - N/A   Mostly Cloudy
9:52 AM 37.9 °F 35.5 °F 25.0 °F 60% 29.84 in 10.0 mi WNW 3.5 mph - N/A   Overcast
10:52 AM 43.0 °F 40.3 °F 24.1 °F 47% 29.82 in 10.0 mi Variable 4.6 mph - N/A   Mostly Cloudy
11:52 AM 45.0 °F 41.8 °F 24.1 °F 44% 29.80 in 10.0 mi WNW 5.8 mph - N/A   Partly Cloudy
12:52 PM 44.1 °F 37.7 °F 24.1 °F 45% 29.78 in 10.0 mi West 12.7 mph - N/A   Mostly Cloudy
1:52 PM 42.1 °F 34.9 °F 23.0 °F 47% 29.78 in 10.0 mi West 13.8 mph - N/A   Scattered Clouds
2:52 PM 43.0 °F 38.8 °F 23.0 °F 45% 29.78 in 10.0 mi WNW 6.9 mph - N/A   Clear
3:52 PM 43.0 °F 38.8 °F 24.1 °F 47% 29.79 in 10.0 mi WNW 6.9 mph - N/A   Mostly Cloudy
4:52 PM 41.0 °F 33.5 °F 25.0 °F 53% 29.81 in 10.0 mi West 13.8 mph - N/A   Overcast
5:52 PM 37.9 °F 33.5 °F 23.0 °F 55% 29.84 in 10.0 mi WNW 5.8 mph - N/A   Mostly Cloudy
6:52 PM 36.0 °F 29.6 °F 24.1 °F 62% 29.87 in 10.0 mi WNW 8.1 mph - N/A   Overcast
7:52 PM 34.0 °F 29.8 °F 25.0 °F 70% 29.89 in 10.0 mi Variable 4.6 mph - N/A   Overcast
8:52 PM 33.1 °F 30.0 °F 25.0 °F 72% 29.90 in 10.0 mi Variable 3.5 mph - N/A   Overcast
9:52 PM 32.0 °F 28.7 °F 26.1 °F 79% 29.91 in 8.0 mi North 3.5 mph - N/A   Overcast
10:52 PM 30.9 °F 27.5 °F 24.1 °F 76% 29.91 in 10.0 mi Variable 3.5 mph - N/A   Overcast
11:52 PM 30.9 °F 25.2 °F 21.0 °F 67% 29.90 in 10.0 mi West 5.8 mph - N/A   Overcast